Regional Weather Roundup
Issued by NWS

Home | Current Version | Previous Version | Text Only | Print | Product List | Glossary Off
Versions: 1 2 3 4 5 6 7 8 9 10 11 12 13 14 15 16 17 18 19 20 21 22 23 24 25 26 27 28 29 30 31 32 33 34 35 36 37 38 39 40 41 42 43 44 45 46 47 48 49 50

000
ASUS43 KLOT 022221
RWRIL

ILLINOIS REGIONAL WEATHER ROUNDUP
NATIONAL WEATHER SERVICE CHICAGO/ROMEOVILLE IL
500 PM CDT THU JUL 02 2015

NOTE: "FAIR" INDICATES FEW OR NO CLOUDS BELOW 12,000 FEET WITH NO
SIGNIFICANT WEATHER AND/OR OBSTRUCTIONS TO VISIBILITY.

* THESE STATIONS ARE NOT UNDER NWS QUALITY CONTROL. THEY ALSO MAY NOT
  REPORT WEATHER SUCH AS PRECIPITATION OR FOG.

ILZ001-002-007-009-015-016-024-022300-
NORTHWEST ILLINOIS

CITY           SKY/WX    TMP DP  RH WIND       PRES   REMARKS
MOLINE         CLOUDY    71  56  58 E9        29.97R
STERLING*      MOSUNNY   70  57  64 E10       29.98R
SAVANNA*       MOSUNNY   73  51  45 NE9       29.98F
$$

ILZ003-004-008-010-011-017-018-022300-
NORTH CENTRAL ILLINOIS

CITY           SKY/WX    TMP DP  RH WIND       PRES   REMARKS
ROCKFORD       CLOUDY    72  50  45 NE12      29.99F
FREEPORT*      MOSUNNY   69  52  54 NE5       30.01R
ROCHELLE*      MOSUNNY   71  57  60 NE12      29.98F
DE KALB*       MOSUNNY   69  54  60 E12       29.99S
PERU*          MOSUNNY   72  55  56 NE9       29.96S
$$

ILZ005-006-012>014-019>023-022300-
NORTHEAST ILLINOIS

CITY           SKY/WX    TMP DP  RH WIND       PRES   REMARKS
CHICAGO-OHARE  MOSUNNY   66  53  63 NE12      29.99S
CHICAGO-MIDWAY PTSUNNY   70  55  59 NE14      29.98S
AURORA         PTSUNNY   71  53  52 NE13      29.97F
LANSING*       MOSUNNY   66  54  65 N10G16    29.97S
JOLIET*        MOSUNNY   73  59  62 NE12      29.95F
WAUKEGAN       SUNNY     62  52  69 VRB6      30.01R
DUPAGE AIRPORT MOSUNNY   69  53  56 NE13      29.97F
KANKAKEE*      MOSUNNY   72  60  66 NE9G16    29.95S
WHEELING       MOSUNNY   65  52  62 NE8       30.01S
MORRIS*        MOSUNNY   72  57  58 E7        29.94F
ROMEOVILLE*    PTSUNNY   70  54  57 NE14      29.96F
NORTHERLY ISL    N/A     62  55  77 N13         N/A
$$

LMZ740>746-022300-
SOUTHERN LAKE MICHIGAN

STATION/POSITION SKY/WX   TEMP    WIND        PRES    VSBY  WAVE
                          AIR SEA DIR/SP/G                  HT/PER
                          (F)     (DEG/KT/KT) (MB)    (MI)  (FT/S)
HARRISON CRIB              57     350/ 17/ 19   N/A
BURNHAM HARBOR             62     350/ 11/ 15   N/A
CALUMET HARBOR             61     330/ 12/ 17   N/A
BURNS HARBOR               62      20/ 13/ 14 1015.6S
MICHIGAN CITY              63     360/ 18/ 20   N/A
MICHIGAN CITY 6N           63 64   20/ 14/ 19   N/A           4/ 4
ST. JOSEPH                 61 63                N/A           3/ 3
$$

ILZ025>027-034>036-040-047-049-050-058-095>099-022300-
WEST-CENTRAL ILLINOIS

CITY           SKY/WX    TMP DP  RH WIND       PRES   REMARKS
QUINCY         CLOUDY    70  59  68 NE9       29.94S
GALESBURG*     PTSUNNY   70  57  64 NE8       29.96F
MACOMB*        CLOUDY    69  58  69 NE8       29.97F
JACKSONVILLE*  CLOUDY    72  62  69 NE9       29.92F
PITTSFIELD*    CLOUDY    70  60  70 N7        29.96R
$$

ILZ028>032-037-038-041>044-048-051>054-059>061-022300-
CENTRAL ILLINOIS

CITY           SKY/WX    TMP DP  RH WIND       PRES   REMARKS
PONTIAC        MOSUNNY   75  61  62 NE12      29.95R
BLOOMINGTON    PTSUNNY   77  59  53 NE12      29.94S
DECATUR        CLOUDY    76  60  57 N7        29.90F
PEORIA         PTSUNNY   76  58  53 NE7       29.94S
LACON*         PTSUNNY   72  58  61 NE6       29.94S
LINCOLN*       CLOUDY    75  59  57 NE6       29.93R
SPRINGFIELD    CLOUDY    75  60  59 N7        29.92F
TAYLORVILLE    PTSUNNY   70  61  73 N8        29.91R
$$

ILZ033-039-045-046-055>057-062-063-022300-
EAST-CENTRAL ILLINOIS

CITY           SKY/WX    TMP DP  RH WIND       PRES   REMARKS
CHAMPAIGN      PTSUNNY   75  61  61 N8        29.91F
DANVILLE*      PTSUNNY   75  63  66 NE6       29.88F HAZE
RANTOUL*       PTSUNNY   78  61  55 E8        29.91F HX  80
MATTOON        CLOUDY    75  64  68 NE8       29.88S
PARIS*         PTSUNNY   78  67  67 N8        29.89F HX  80
$$

ILZ079-100>102-022300-
SOUTHWEST ILLINOIS

CITY           SKY/WX    TMP DP  RH WIND       PRES   REMARKS
ALTON          PTSUNNY   75  70  83 N9        29.89S
BELLEVILLE     PTSUNNY   77  69  76 NE7       29.86S
CAHOKIA*       PTSUNNY   80  66  62 NE6       29.87S HX  82
SPARTA*        CLOUDY    75  68  78 NE7       29.88S
$$

ILZ064>066-069>071-074>076-080>082-084>086-088>090-092>094-022300-
SOUTH-CENTRAL ILLINOIS

CITY           SKY/WX    TMP DP  RH WIND       PRES   REMARKS
CARBONDALE     PTSUNNY   76  68  76 NE7       29.85F
CAIRO*         MOSUNNY   82  72  70 NW9       29.82F HX  87
EFFINGHAM*     PTSUNNY   77  63  61 N9        29.89S
MARION         CLOUDY    77  70  78 N12       29.85F
MT. VERNON     CLOUDY    75  66  73 NE7       29.86F
CENTRALIA*     CLOUDY    76  66  72 N5        29.87S
SALEM*         PTSUNNY   79  68  68 NE6       29.87S HX  82
METROPOLIS*    MOSUNNY   82  74  77 W3        29.83S HX  87
$$

ILZ067-068-072-073-078-083-087-091-022300-
SOUTHEAST ILLINOIS

CITY           SKY/WX    TMP DP  RH WIND       PRES   REMARKS
LAWRENCEVILLE  CLOUDY    76  68  76 N7        29.87R
FLORA*         MOSUNNY   76  67  75 NE7       29.87S
FAIRFIELD*     CLOUDY    73  69  87 N5        29.86R
HARRISBURG*    PTSUNNY   79  72  80 N7        29.85F HX  81
ROBINSON*      CLOUDY    76  68  74 N5        29.88R
CARMI*         MOSUNNY   78  67  68 N9        29.85R HX  80
$$

ABBREVIATIONS USED IN REMARKS
   TC - TEMPERATURE IN CELSIUS
  WCI - WIND CHILL INDEX
   HX - HEAT INDEX
  VSB - VISIBILITY
$$




USA.gov is the U.S. government's official web portal to all federal, state and local government web resources and services.